Погода в Гнилане

Сербия     42°27′44″N   21°27′55″E
темп.,
°C
ветер,
м/с
пор.,
м/с
влажн.,
%
обл.,
%
осадки,
мм/ч
давл.,
гПа
погр.,
м
18 апреля, вс
вс1823:00+2с2296100 2.6 1014139
02:00+2ссз1296100 3.9 1014123
05:00+2с1196100 0.7 101488
08:00+3сз1194100 0.9 1014111
11:00+4зсз1190100 0.1 1016250
14:00+5ссз1187100 0.1 1016298
17:00+7ссв128388 0.0 1016388
20:00+5ссв2293100 0.0 101639
19 апреля, пн
пн1923:00+5с229250 0.0 101754
02:00+2с2398100 0.0 101781
05:00+3с2395100 0.0 1015180
08:00+5ссв2292100 0.0 1015327
11:00+7ссв228199 0.0 1013690
14:00+7с348299 0.1 1012653
17:00+5ссз3591100 1.1 1012760
20:00+5зюз2495100 2.1 1012368
20 апреля, вт
вт2023:00+5зсз2594100 0.1 1013735
02:00+4зсз2697100 0.3 1013723
05:00+4з2597100 0.2 1014602
08:00+5з128897 0.3 1015439
11:00+7зсз2276100 0.1 1015847
14:00+10з356598 0.2 10141282
17:00+10з466960 0.4 10141050
20:00+5сз11875 1.1 101623
21 апреля, ср
ср2123:00+3зсз11896 0.1 101813
02:00+2сз118915 0.2 101911
05:00+2з119111 0.0 102010
08:00+6з12815 0.0 1020283
11:00+10зюз336218 0.1 10191248
14:00+13з464967 0.2 10182095
17:00+13з565512 0.1 10171329
20:00+7сз35772 0.1 101968
22 апреля, чт
чт2223:00+5сз117927 0.0 102110
02:00+4сз008210 0.0 102110
05:00+3зсз008433 0.0 102210
08:00+8ююз11736 0.0 1022199
11:00+13ю125799 0.0 10211067
14:00+16зюз034352 0.0 10192057
17:00+13св0160100 0.1 1019318
20:00+9с117098 0.1 101910